Location: ?ejeti?ky
(50.4060°N, 14.9016°E)
Time: 23:43:41
(UTC+00:00)

X-37B - Pass Details

Date: 16 December 2021
Orbit: 334 x 337 km, 45.0° (Epoch: 11 January)

Event Time Altitude Azimuth Distance (km) Brightness Sun altitude
Rises 17:06:58 0° 264° (W) 2,106 5.9 -19.4°
Reaches altitude 10° 17:09:28 10° 240° (WSW) 1,267 4.3 -19.8°
Maximum altitude 17:11:16 16° 200° (SSW) 994 3.0 -20.1°
Enters shadow 17:12:04 14° 180° (S) 1,049 2.9 -20.2°
